Year,Month,Day,Hour,Minute,Value (Times are PST for windgust in km/hr)
2006,12,17,00,00,6.40
2006,12,17,00,01,6.40
2006,12,17,00,02,6.40
2006,12,17,00,03,6.40
2006,12,17,00,04,6.40
2006,12,17,00,05,8.10
2006,12,17,00,06,8.10
2006,12,17,00,07,6.40
2006,12,17,00,08,8.10
2006,12,17,00,09,8.10
2006,12,17,00,10,8.10
2006,12,17,00,11,11.30
2006,12,17,00,12,8.10
2006,12,17,00,13,8.10
2006,12,17,00,14,8.10
2006,12,17,00,15,6.40
2006,12,17,00,16,4.80
2006,12,17,00,17,8.10
2006,12,17,00,18,11.30
2006,12,17,00,19,9.60
2006,12,17,00,20,8.10
2006,12,17,00,21,9.60
2006,12,17,00,22,9.60
2006,12,17,00,23,6.40
2006,12,17,00,24,8.10
2006,12,17,00,25,6.40
2006,12,17,00,26,9.60
2006,12,17,00,27,8.10
2006,12,17,00,28,8.10
2006,12,17,00,29,6.40
2006,12,17,00,30,6.40
2006,12,17,00,31,8.10
2006,12,17,00,32,8.10
2006,12,17,00,33,8.10
2006,12,17,00,34,6.40
2006,12,17,00,35,6.40
2006,12,17,00,36,6.40
2006,12,17,00,37,6.40
2006,12,17,00,38,8.10
2006,12,17,00,39,4.80
2006,12,17,00,40,8.10
2006,12,17,00,41,6.40
2006,12,17,00,42,8.10
2006,12,17,00,43,8.10
2006,12,17,00,44,9.60
2006,12,17,00,45,6.40
2006,12,17,00,46,8.10
2006,12,17,00,47,8.10
2006,12,17,00,48,11.30
2006,12,17,00,49,9.60
2006,12,17,00,50,11.30
2006,12,17,00,51,8.10
2006,12,17,00,52,9.60
2006,12,17,00,53,8.10
2006,12,17,00,54,9.60
2006,12,17,00,55,8.10
2006,12,17,00,56,9.60
2006,12,17,00,57,9.60
2006,12,17,00,58,6.40
2006,12,17,00,59,6.40
2006,12,17,01,00,8.10
2006,12,17,01,01,6.40
2006,12,17,01,02,6.40
2006,12,17,01,03,8.10
2006,12,17,01,04,8.10
2006,12,17,01,05,9.60
2006,12,17,01,06,8.10
2006,12,17,01,07,11.30
2006,12,17,01,08,9.60
2006,12,17,01,09,8.10
2006,12,17,01,10,9.60
2006,12,17,01,11,11.30
2006,12,17,01,12,8.10
2006,12,17,01,13,9.60
2006,12,17,01,14,9.60
2006,12,17,01,15,9.60
2006,12,17,01,16,8.10
2006,12,17,01,17,8.10
2006,12,17,01,18,9.60
2006,12,17,01,19,11.30
2006,12,17,01,20,14.50
2006,12,17,01,21,8.10
2006,12,17,01,22,8.10
2006,12,17,01,23,9.60
2006,12,17,01,24,9.60
2006,12,17,01,25,6.40
2006,12,17,01,26,6.40
2006,12,17,01,27,6.40
2006,12,17,01,28,6.40
2006,12,17,01,29,8.10
2006,12,17,01,30,8.10
2006,12,17,01,31,9.60
2006,12,17,01,32,9.60
2006,12,17,01,33,11.30
2006,12,17,01,34,6.40
2006,12,17,01,35,9.60
2006,12,17,01,36,8.10
2006,12,17,01,37,9.60
2006,12,17,01,38,11.30
2006,12,17,01,39,9.60
2006,12,17,01,40,8.10
2006,12,17,01,41,9.60
2006,12,17,01,42,11.30
2006,12,17,01,43,6.40
2006,12,17,01,44,8.10
2006,12,17,01,45,8.10
2006,12,17,01,46,6.40
2006,12,17,01,47,4.80
2006,12,17,01,48,4.80
2006,12,17,01,49,6.40
2006,12,17,01,50,6.40
2006,12,17,01,51,6.40
2006,12,17,01,52,6.40
2006,12,17,01,53,6.40
2006,12,17,01,54,6.40
2006,12,17,01,55,6.40
2006,12,17,01,56,6.40
2006,12,17,01,57,8.10
2006,12,17,01,58,9.60
2006,12,17,01,59,6.40
2006,12,17,02,00,8.10
2006,12,17,02,01,11.30
2006,12,17,02,02,9.60
2006,12,17,02,03,8.10
2006,12,17,02,04,8.10
2006,12,17,02,05,11.30
2006,12,17,02,06,8.10
2006,12,17,02,07,11.30
2006,12,17,02,08,8.10
2006,12,17,02,09,8.10
2006,12,17,02,10,8.10
2006,12,17,02,11,6.40
2006,12,17,02,12,6.40
2006,12,17,02,13,9.60
2006,12,17,02,14,8.10
2006,12,17,02,15,8.10
2006,12,17,02,16,8.10
2006,12,17,02,17,6.40
2006,12,17,02,18,8.10
2006,12,17,02,19,6.40
2006,12,17,02,20,6.40
2006,12,17,02,21,6.40
2006,12,17,02,22,3.20
2006,12,17,02,23,3.20
2006,12,17,02,24,3.20
2006,12,17,02,25,3.20
2006,12,17,02,26,3.20
2006,12,17,02,27,4.80
2006,12,17,02,28,4.80
2006,12,17,02,29,4.80
2006,12,17,02,30,4.80
2006,12,17,02,31,3.20
2006,12,17,02,32,6.40
2006,12,17,02,33,4.80
2006,12,17,02,34,3.20
2006,12,17,02,35,3.20
2006,12,17,02,36,3.20
2006,12,17,02,37,4.80
2006,12,17,02,38,3.20
2006,12,17,02,39,3.20
2006,12,17,02,40,4.80
2006,12,17,02,41,8.10
2006,12,17,02,42,6.40
2006,12,17,02,43,6.40
2006,12,17,02,44,4.80
2006,12,17,02,45,3.20
2006,12,17,02,46,3.20
2006,12,17,02,47,3.20
2006,12,17,02,48,4.80
2006,12,17,02,49,4.80
2006,12,17,02,50,6.40
2006,12,17,02,51,6.40
2006,12,17,02,52,6.40
2006,12,17,02,53,4.80
2006,12,17,02,54,4.80
2006,12,17,02,55,4.80
2006,12,17,02,56,8.10
2006,12,17,02,57,6.40
2006,12,17,02,58,6.40
2006,12,17,02,59,8.10
2006,12,17,03,00,6.40
2006,12,17,03,01,6.40
2006,12,17,03,02,8.10
2006,12,17,03,03,4.80
2006,12,17,03,04,4.80
2006,12,17,03,05,4.80
2006,12,17,03,06,6.40
2006,12,17,03,07,8.10
2006,12,17,03,08,6.40
2006,12,17,03,09,6.40
2006,12,17,03,10,8.10
2006,12,17,03,11,9.60
2006,12,17,03,12,9.60
2006,12,17,03,13,6.40
2006,12,17,03,14,8.10
2006,12,17,03,15,9.60
2006,12,17,03,16,11.30
2006,12,17,03,17,6.40
2006,12,17,03,18,11.30
2006,12,17,03,19,9.60
2006,12,17,03,20,8.10
2006,12,17,03,21,8.10
2006,12,17,03,22,9.60
2006,12,17,03,23,6.40
2006,12,17,03,24,8.10
2006,12,17,03,25,8.10
2006,12,17,03,26,6.40
2006,12,17,03,27,8.10
2006,12,17,03,28,9.60
2006,12,17,03,29,6.40
2006,12,17,03,30,6.40
2006,12,17,03,31,6.40
2006,12,17,03,32,6.40
2006,12,17,03,33,6.40
2006,12,17,03,34,4.80
2006,12,17,03,35,4.80
2006,12,17,03,36,6.40
2006,12,17,03,37,6.40
2006,12,17,03,38,8.10
2006,12,17,03,39,8.10
2006,12,17,03,40,8.10
2006,12,17,03,41,6.40
2006,12,17,03,42,6.40
2006,12,17,03,43,6.40
2006,12,17,03,44,6.40
2006,12,17,03,45,8.10
2006,12,17,03,46,6.40
2006,12,17,03,47,11.30
2006,12,17,03,48,6.40
2006,12,17,03,49,6.40
2006,12,17,03,50,4.80
2006,12,17,03,51,6.40
2006,12,17,03,52,6.40
2006,12,17,03,53,8.10
2006,12,17,03,54,6.40
2006,12,17,03,55,8.10
2006,12,17,03,56,4.80
2006,12,17,03,57,9.60
2006,12,17,03,58,9.60
2006,12,17,03,59,6.40
2006,12,17,04,00,6.40
2006,12,17,04,01,6.40
2006,12,17,04,02,6.40
2006,12,17,04,03,8.10
2006,12,17,04,04,9.60
2006,12,17,04,05,9.60
2006,12,17,04,06,8.10
2006,12,17,04,07,6.40
2006,12,17,04,08,8.10
2006,12,17,04,09,8.10
2006,12,17,04,10,6.40
2006,12,17,04,11,6.40
2006,12,17,04,12,6.40
2006,12,17,04,13,8.10
2006,12,17,04,14,4.80
2006,12,17,04,15,6.40
2006,12,17,04,16,4.80
2006,12,17,04,17,6.40
2006,12,17,04,18,4.80
2006,12,17,04,19,4.80
2006,12,17,04,20,8.10
2006,12,17,04,21,4.80
2006,12,17,04,22,3.20
2006,12,17,04,23,4.80
2006,12,17,04,24,4.80
2006,12,17,04,25,4.80
2006,12,17,04,26,6.40
2006,12,17,04,27,6.40
2006,12,17,04,28,6.40
2006,12,17,04,29,6.40
2006,12,17,04,30,4.80
2006,12,17,04,31,8.10
2006,12,17,04,32,8.10
2006,12,17,04,33,6.40
2006,12,17,04,34,8.10
2006,12,17,04,35,6.40
2006,12,17,04,36,6.40
2006,12,17,04,37,4.80
2006,12,17,04,38,6.40
2006,12,17,04,39,8.10
2006,12,17,04,40,6.40
2006,12,17,04,41,6.40
2006,12,17,04,42,8.10
2006,12,17,04,43,4.80
2006,12,17,04,44,6.40
2006,12,17,04,45,6.40
2006,12,17,04,46,4.80
2006,12,17,04,47,3.20
2006,12,17,04,48,1.60
2006,12,17,04,49,4.80
2006,12,17,04,50,4.80
2006,12,17,04,51,3.20
2006,12,17,04,52,4.80
2006,12,17,04,53,3.20
2006,12,17,04,54,3.20
2006,12,17,04,55,4.80
2006,12,17,04,56,4.80
2006,12,17,04,57,4.80
2006,12,17,04,58,4.80
2006,12,17,04,59,3.20
2006,12,17,05,00,3.20
2006,12,17,05,01,4.80
2006,12,17,05,02,3.20
2006,12,17,05,03,3.20
2006,12,17,05,04,4.80
2006,12,17,05,05,3.20
2006,12,17,05,06,3.20
2006,12,17,05,07,4.80
2006,12,17,05,08,4.80
2006,12,17,05,09,3.20
2006,12,17,05,10,4.80
2006,12,17,05,11,4.80
2006,12,17,05,12,4.80
2006,12,17,05,13,4.80
2006,12,17,05,14,4.80
2006,12,17,05,15,4.80
2006,12,17,05,16,4.80
2006,12,17,05,17,6.40
2006,12,17,05,18,6.40
2006,12,17,05,19,4.80
2006,12,17,05,20,6.40
2006,12,17,05,21,8.10
2006,12,17,05,22,6.40
2006,12,17,05,23,8.10
2006,12,17,05,24,4.80
2006,12,17,05,25,6.40
2006,12,17,05,26,4.80
2006,12,17,05,27,6.40
2006,12,17,05,28,6.40
2006,12,17,05,29,6.40
2006,12,17,05,30,4.80
2006,12,17,05,31,4.80
2006,12,17,05,32,8.10
2006,12,17,05,33,8.10
2006,12,17,05,34,6.40
2006,12,17,05,35,6.40
2006,12,17,05,36,6.40
2006,12,17,05,37,9.60
2006,12,17,05,38,8.10
2006,12,17,05,39,6.40
2006,12,17,05,40,8.10
2006,12,17,05,41,11.30
2006,12,17,05,42,9.60
2006,12,17,05,43,4.80
2006,12,17,05,44,9.60
2006,12,17,05,45,8.10
2006,12,17,05,46,4.80
2006,12,17,05,47,6.40
2006,12,17,05,48,8.10
2006,12,17,05,49,8.10
2006,12,17,05,50,6.40
2006,12,17,05,51,4.80
2006,12,17,05,52,4.80
2006,12,17,05,53,4.80
2006,12,17,05,54,4.80
2006,12,17,05,55,4.80
2006,12,17,05,56,6.40
2006,12,17,05,57,4.80
2006,12,17,05,58,4.80
2006,12,17,05,59,8.10
2006,12,17,06,00,6.40
2006,12,17,06,01,6.40
2006,12,17,06,02,6.40
2006,12,17,06,03,4.80
2006,12,17,06,04,4.80
2006,12,17,06,05,4.80
2006,12,17,06,06,3.20
2006,12,17,06,07,3.20
2006,12,17,06,08,4.80
2006,12,17,06,09,4.80
2006,12,17,06,10,3.20
2006,12,17,06,11,4.80
2006,12,17,06,12,3.20
2006,12,17,06,13,3.20
2006,12,17,06,14,3.20
2006,12,17,06,15,6.40
2006,12,17,06,16,4.80
2006,12,17,06,17,3.20
2006,12,17,06,18,4.80
2006,12,17,06,19,4.80
2006,12,17,06,20,4.80
2006,12,17,06,21,4.80
2006,12,17,06,22,4.80
2006,12,17,06,23,6.40
2006,12,17,06,24,6.40
2006,12,17,06,25,4.80
2006,12,17,06,26,4.80
2006,12,17,06,27,6.40
2006,12,17,06,28,6.40
2006,12,17,06,29,8.10
2006,12,17,06,30,6.40
2006,12,17,06,31,6.40
2006,12,17,06,32,6.40
2006,12,17,06,33,4.80
2006,12,17,06,34,8.10
2006,12,17,06,35,6.40
2006,12,17,06,36,8.10
2006,12,17,06,37,6.40
2006,12,17,06,38,4.80
2006,12,17,06,39,6.40
2006,12,17,06,40,6.40
2006,12,17,06,41,6.40
2006,12,17,06,42,6.40
2006,12,17,06,43,6.40
2006,12,17,06,44,6.40
2006,12,17,06,45,6.40
2006,12,17,06,46,4.80
2006,12,17,06,47,6.40
2006,12,17,06,48,4.80
2006,12,17,06,49,4.80
2006,12,17,06,50,4.80
2006,12,17,06,51,4.80
2006,12,17,06,52,4.80
2006,12,17,06,53,6.40
2006,12,17,06,54,6.40
2006,12,17,06,55,6.40
2006,12,17,06,56,6.40
2006,12,17,06,57,6.40
2006,12,17,06,58,6.40
2006,12,17,06,59,6.40
2006,12,17,07,00,8.10
2006,12,17,07,01,6.40
2006,12,17,07,02,6.40
2006,12,17,07,03,6.40
2006,12,17,07,04,6.40
2006,12,17,07,05,4.80
2006,12,17,07,06,4.80
2006,12,17,07,07,4.80
2006,12,17,07,08,4.80
2006,12,17,07,09,6.40
2006,12,17,07,10,4.80
2006,12,17,07,11,6.40
2006,12,17,07,12,4.80
2006,12,17,07,13,4.80
2006,12,17,07,14,4.80
2006,12,17,07,15,4.80
2006,12,17,07,16,6.40
2006,12,17,07,17,4.80
2006,12,17,07,18,4.80
2006,12,17,07,19,4.80
2006,12,17,07,20,6.40
2006,12,17,07,21,4.80
2006,12,17,07,22,4.80
2006,12,17,07,23,4.80
2006,12,17,07,24,4.80
2006,12,17,07,25,4.80
2006,12,17,07,26,6.40
2006,12,17,07,27,6.40
2006,12,17,07,28,8.10
2006,12,17,07,29,6.40
2006,12,17,07,30,6.40
2006,12,17,07,31,8.10
2006,12,17,07,32,6.40
2006,12,17,07,33,6.40
2006,12,17,07,34,6.40
2006,12,17,07,35,8.10
2006,12,17,07,36,8.10
2006,12,17,07,37,8.10
2006,12,17,07,38,6.40
2006,12,17,07,39,6.40
2006,12,17,07,40,4.80
2006,12,17,07,41,4.80
2006,12,17,07,42,6.40
2006,12,17,07,43,8.10
2006,12,17,07,44,6.40
2006,12,17,07,45,8.10
2006,12,17,07,46,6.40
2006,12,17,07,47,4.80
2006,12,17,07,48,6.40
2006,12,17,07,49,4.80
2006,12,17,07,50,6.40
2006,12,17,07,51,6.40
2006,12,17,07,52,4.80
2006,12,17,07,53,4.80
2006,12,17,07,54,6.40
2006,12,17,07,55,4.80
2006,12,17,07,56,3.20
2006,12,17,07,57,4.80
2006,12,17,07,58,4.80
2006,12,17,07,59,3.20
2006,12,17,08,00,3.20
2006,12,17,08,01,3.20
2006,12,17,08,02,4.80
2006,12,17,08,03,4.80
2006,12,17,08,04,4.80
2006,12,17,08,05,4.80
2006,12,17,08,06,6.40
2006,12,17,08,07,4.80
2006,12,17,08,08,3.20
2006,12,17,08,09,3.20
2006,12,17,08,10,4.80
2006,12,17,08,11,4.80
2006,12,17,08,12,4.80
2006,12,17,08,13,4.80
2006,12,17,08,14,4.80
2006,12,17,08,15,6.40
2006,12,17,08,16,4.80
2006,12,17,08,17,4.80
2006,12,17,08,18,4.80
2006,12,17,08,19,4.80
2006,12,17,08,20,4.80
2006,12,17,08,21,4.80
2006,12,17,08,22,6.40
2006,12,17,08,23,6.40
2006,12,17,08,24,4.80
2006,12,17,08,25,4.80
2006,12,17,08,26,4.80
2006,12,17,08,27,4.80
2006,12,17,08,28,4.80
2006,12,17,08,29,3.20
2006,12,17,08,30,4.80
2006,12,17,08,31,4.80
2006,12,17,08,32,4.80
2006,12,17,08,33,4.80
2006,12,17,08,34,4.80
2006,12,17,08,35,4.80
2006,12,17,08,36,4.80
2006,12,17,08,37,6.40
2006,12,17,08,38,6.40
2006,12,17,08,39,4.80
2006,12,17,08,40,6.40
2006,12,17,08,41,6.40
2006,12,17,08,42,6.40
2006,12,17,08,43,6.40
2006,12,17,08,44,8.10
2006,12,17,08,45,8.10
2006,12,17,08,46,8.10
2006,12,17,08,47,8.10
2006,12,17,08,48,8.10
2006,12,17,08,49,8.10
2006,12,17,08,50,8.10
2006,12,17,08,51,8.10
2006,12,17,08,52,8.10
2006,12,17,08,53,8.10
2006,12,17,08,54,9.60
2006,12,17,08,55,9.60
2006,12,17,08,56,8.10
2006,12,17,08,57,8.10
2006,12,17,08,58,8.10
2006,12,17,08,59,8.10
2006,12,17,09,00,6.40
2006,12,17,09,01,8.10
2006,12,17,09,02,8.10
2006,12,17,09,03,9.60
2006,12,17,09,04,8.10
2006,12,17,09,05,9.60
2006,12,17,09,06,9.60
2006,12,17,09,07,9.60
2006,12,17,09,08,9.60
2006,12,17,09,09,8.10
2006,12,17,09,10,9.60
2006,12,17,09,11,9.60
2006,12,17,09,12,9.60
2006,12,17,09,13,8.10
2006,12,17,09,14,9.60
2006,12,17,09,15,9.60
2006,12,17,09,16,9.60
2006,12,17,09,17,6.40
2006,12,17,09,18,6.40
2006,12,17,09,19,6.40
2006,12,17,09,20,6.40
2006,12,17,09,21,6.40
2006,12,17,09,22,6.40
2006,12,17,09,23,8.10
2006,12,17,09,24,8.10
2006,12,17,09,25,8.10
2006,12,17,09,26,8.10
2006,12,17,09,27,4.80
2006,12,17,09,28,8.10
2006,12,17,09,29,8.10
2006,12,17,09,30,8.10
2006,12,17,09,31,8.10
2006,12,17,09,32,8.10
2006,12,17,09,33,8.10
2006,12,17,09,34,8.10
2006,12,17,09,35,6.40
2006,12,17,09,36,8.10
2006,12,17,09,37,8.10
2006,12,17,09,38,8.10
2006,12,17,09,39,8.10
2006,12,17,09,40,8.10
2006,12,17,09,41,6.40
2006,12,17,09,42,8.10
2006,12,17,09,43,8.10
2006,12,17,09,44,8.10
2006,12,17,09,45,8.10
2006,12,17,09,46,8.10
2006,12,17,09,47,8.10
2006,12,17,09,48,9.60
2006,12,17,09,49,8.10
2006,12,17,09,50,6.40
2006,12,17,09,51,8.10
2006,12,17,09,52,6.40
2006,12,17,09,53,6.40
2006,12,17,09,54,4.80
2006,12,17,09,55,4.80
2006,12,17,09,56,6.40
2006,12,17,09,57,6.40
2006,12,17,09,58,6.40
2006,12,17,09,59,6.40
2006,12,17,10,00,4.80
2006,12,17,10,01,4.80
2006,12,17,10,02,6.40
2006,12,17,10,03,4.80
2006,12,17,10,04,4.80
2006,12,17,10,05,8.10
2006,12,17,10,06,6.40
2006,12,17,10,07,6.40
2006,12,17,10,08,3.20
2006,12,17,10,09,4.80
2006,12,17,10,10,4.80
2006,12,17,10,11,6.40
2006,12,17,10,12,9.60
2006,12,17,10,13,6.40
2006,12,17,10,14,8.10
2006,12,17,10,15,6.40
2006,12,17,10,16,8.10
2006,12,17,10,17,6.40
2006,12,17,10,18,8.10
2006,12,17,10,19,4.80
2006,12,17,10,20,8.10
2006,12,17,10,21,9.60
2006,12,17,10,22,6.40
2006,12,17,10,23,6.40
2006,12,17,10,24,6.40
2006,12,17,10,25,6.40
2006,12,17,10,26,8.10
2006,12,17,10,27,8.10
2006,12,17,10,28,6.40
2006,12,17,10,29,9.60
2006,12,17,10,30,9.60
2006,12,17,10,31,9.60
2006,12,17,10,32,9.60
2006,12,17,10,33,6.40
2006,12,17,10,34,6.40
2006,12,17,10,35,6.40
2006,12,17,10,36,9.60
2006,12,17,10,37,9.60
2006,12,17,10,38,9.60
2006,12,17,10,39,8.10
2006,12,17,10,40,9.60
2006,12,17,10,41,11.30
2006,12,17,10,42,11.30
2006,12,17,10,43,6.40
2006,12,17,10,44,8.10
2006,12,17,10,45,9.60
2006,12,17,10,46,8.10
2006,12,17,10,47,6.40
2006,12,17,10,48,6.40
2006,12,17,10,49,6.40
2006,12,17,10,50,8.10
2006,12,17,10,51,8.10
2006,12,17,10,52,8.10
2006,12,17,10,53,6.40
2006,12,17,10,54,3.20
2006,12,17,10,55,3.20
2006,12,17,10,56,6.40
2006,12,17,10,57,6.40
2006,12,17,10,58,9.60
2006,12,17,10,59,6.40
2006,12,17,11,00,4.80
2006,12,17,11,01,8.10
2006,12,17,11,02,8.10
2006,12,17,11,03,8.10
2006,12,17,11,04,8.10
2006,12,17,11,05,6.40
2006,12,17,11,06,4.80
2006,12,17,11,07,3.20
2006,12,17,11,08,0.00
2006,12,17,11,09,3.20
2006,12,17,11,10,4.80
2006,12,17,11,11,6.40
2006,12,17,11,12,4.80
2006,12,17,11,13,6.40
2006,12,17,11,14,4.80
2006,12,17,11,15,6.40
2006,12,17,11,16,6.40
2006,12,17,11,17,6.40
2006,12,17,11,18,4.80
2006,12,17,11,19,4.80
2006,12,17,11,20,3.20
2006,12,17,11,21,1.60
2006,12,17,11,22,1.60
2006,12,17,11,23,6.40
2006,12,17,11,24,6.40
2006,12,17,11,25,4.80
2006,12,17,11,26,4.80
2006,12,17,11,27,4.80
2006,12,17,11,28,4.80
2006,12,17,11,29,6.40
2006,12,17,11,30,9.60
2006,12,17,11,31,9.60
2006,12,17,11,32,9.60
2006,12,17,11,33,9.60
2006,12,17,11,34,4.80
2006,12,17,11,35,8.10
2006,12,17,11,36,6.40
2006,12,17,11,37,6.40
2006,12,17,11,38,3.20
2006,12,17,11,39,3.20
2006,12,17,11,40,3.20
2006,12,17,11,41,6.40
2006,12,17,11,42,6.40
2006,12,17,11,43,8.10
2006,12,17,11,44,6.40
2006,12,17,11,45,6.40
2006,12,17,11,46,4.80
2006,12,17,11,47,8.10
2006,12,17,11,48,9.60
2006,12,17,11,49,8.10
2006,12,17,11,50,8.10
2006,12,17,11,51,8.10
2006,12,17,11,52,8.10
2006,12,17,11,53,4.80
2006,12,17,11,54,4.80
2006,12,17,11,55,6.40
2006,12,17,11,56,9.60
2006,12,17,11,57,9.60
2006,12,17,11,58,9.60
2006,12,17,11,59,9.60
2006,12,17,12,00,6.40
2006,12,17,12,01,6.40
2006,12,17,12,02,6.40
2006,12,17,12,03,4.80
2006,12,17,12,04,1.60
2006,12,17,12,05,1.60
2006,12,17,12,06,0.00
2006,12,17,12,07,1.60
2006,12,17,12,08,4.80
2006,12,17,12,09,3.20
2006,12,17,12,10,4.80
2006,12,17,12,11,6.40
2006,12,17,12,12,3.20
2006,12,17,12,13,1.60
2006,12,17,12,14,1.60
2006,12,17,12,15,6.40
2006,12,17,12,16,8.10
2006,12,17,12,17,6.40
2006,12,17,12,18,8.10
2006,12,17,12,19,6.40
2006,12,17,12,20,4.80
2006,12,17,12,21,8.10
2006,12,17,12,22,6.40
2006,12,17,12,23,6.40
2006,12,17,12,24,6.40
2006,12,17,12,25,8.10
2006,12,17,12,26,9.60
2006,12,17,12,27,9.60
2006,12,17,12,28,8.10
2006,12,17,12,29,6.40
2006,12,17,12,30,8.10
2006,12,17,12,31,6.40
2006,12,17,12,32,6.40
2006,12,17,12,33,8.10
2006,12,17,12,34,8.10
2006,12,17,12,35,4.80
2006,12,17,12,36,8.10
2006,12,17,12,37,6.40
2006,12,17,12,38,6.40
2006,12,17,12,39,9.60
2006,12,17,12,40,9.60
2006,12,17,12,41,8.10
2006,12,17,12,42,8.10
2006,12,17,12,43,9.60
2006,12,17,12,44,8.10
2006,12,17,12,45,8.10
2006,12,17,12,46,6.40
2006,12,17,12,47,8.10
2006,12,17,12,48,4.80
2006,12,17,12,49,6.40
2006,12,17,12,50,6.40
2006,12,17,12,51,6.40
2006,12,17,12,52,8.10
2006,12,17,12,53,9.60
2006,12,17,12,54,9.60
2006,12,17,12,55,6.40
2006,12,17,12,56,4.80
2006,12,17,12,57,4.80
2006,12,17,12,58,4.80
2006,12,17,12,59,6.40
2006,12,17,13,00,8.10
2006,12,17,13,01,6.40
2006,12,17,13,02,4.80
2006,12,17,13,03,4.80
2006,12,17,13,04,4.80
2006,12,17,13,05,6.40
2006,12,17,13,06,4.80
2006,12,17,13,07,4.80
2006,12,17,13,08,3.20
2006,12,17,13,09,3.20
2006,12,17,13,10,3.20
2006,12,17,13,11,1.60
2006,12,17,13,12,3.20
2006,12,17,13,13,3.20
2006,12,17,13,14,6.40
2006,12,17,13,15,6.40
2006,12,17,13,16,3.20
2006,12,17,13,17,6.40
2006,12,17,13,18,4.80
2006,12,17,13,19,4.80
2006,12,17,13,20,6.40
2006,12,17,13,21,6.40
2006,12,17,13,22,8.10
2006,12,17,13,23,6.40
2006,12,17,13,24,4.80
2006,12,17,13,25,4.80
2006,12,17,13,26,6.40
2006,12,17,13,27,4.80
2006,12,17,13,28,6.40
2006,12,17,13,29,3.20
2006,12,17,13,30,11.30
2006,12,17,13,31,9.60
2006,12,17,13,32,8.10
2006,12,17,13,33,6.40
2006,12,17,13,34,6.40
2006,12,17,13,35,6.40
2006,12,17,13,36,9.60
2006,12,17,13,37,8.10
2006,12,17,13,38,8.10
2006,12,17,13,39,6.40
2006,12,17,13,40,6.40
2006,12,17,13,41,9.60
2006,12,17,13,42,4.80
2006,12,17,13,43,4.80
2006,12,17,13,44,9.60
2006,12,17,13,45,8.10
2006,12,17,13,46,4.80
2006,12,17,13,47,4.80
2006,12,17,13,48,8.10
2006,12,17,13,49,8.10
2006,12,17,13,50,3.20
2006,12,17,13,51,6.40
2006,12,17,13,52,9.60
2006,12,17,13,53,9.60
2006,12,17,13,54,8.10
2006,12,17,13,55,9.60
2006,12,17,13,56,6.40
2006,12,17,13,57,6.40
2006,12,17,13,58,6.40
2006,12,17,13,59,8.10
2006,12,17,14,00,6.40
2006,12,17,14,01,4.80
2006,12,17,14,02,6.40
2006,12,17,14,03,6.40
2006,12,17,14,04,4.80
2006,12,17,14,05,4.80
2006,12,17,14,06,6.40
2006,12,17,14,07,6.40
2006,12,17,14,08,4.80
2006,12,17,14,09,3.20
2006,12,17,14,10,3.20
2006,12,17,14,11,4.80
2006,12,17,14,12,6.40
2006,12,17,14,13,4.80
2006,12,17,14,14,4.80
2006,12,17,14,15,4.80
2006,12,17,14,16,6.40
2006,12,17,14,17,6.40
2006,12,17,14,18,6.40
2006,12,17,14,19,4.80
2006,12,17,14,20,6.40
2006,12,17,14,21,8.10
2006,12,17,14,22,4.80
2006,12,17,14,23,8.10
2006,12,17,14,24,4.80
2006,12,17,14,25,3.20
2006,12,17,14,26,3.20
2006,12,17,14,27,6.40
2006,12,17,14,28,6.40
2006,12,17,14,29,1.60
2006,12,17,14,30,3.20
2006,12,17,14,31,3.20
2006,12,17,14,32,3.20
2006,12,17,14,33,4.80
2006,12,17,14,34,3.20
2006,12,17,14,35,3.20
2006,12,17,14,36,1.60
2006,12,17,14,37,3.20
2006,12,17,14,38,1.60
2006,12,17,14,39,1.60
2006,12,17,14,40,0.00
2006,12,17,14,41,1.60
2006,12,17,14,42,4.80
2006,12,17,14,43,4.80
2006,12,17,14,44,3.20
2006,12,17,14,45,4.80
2006,12,17,14,46,4.80
2006,12,17,14,47,1.60
2006,12,17,14,48,0.00
2006,12,17,14,49,3.20
2006,12,17,14,50,4.80
2006,12,17,14,51,3.20
2006,12,17,14,52,3.20
2006,12,17,14,53,1.60
2006,12,17,14,54,3.20
2006,12,17,14,55,3.20
2006,12,17,14,56,4.80
2006,12,17,14,57,3.20
2006,12,17,14,58,3.20
2006,12,17,14,59,1.60
2006,12,17,15,00,1.60
2006,12,17,15,01,3.20
2006,12,17,15,02,4.80
2006,12,17,15,03,4.80
2006,12,17,15,04,3.20
2006,12,17,15,05,1.60
2006,12,17,15,06,1.60
2006,12,17,15,07,0.00
2006,12,17,15,08,3.20
2006,12,17,15,09,3.20
2006,12,17,15,10,3.20
2006,12,17,15,11,4.80
2006,12,17,15,12,3.20
2006,12,17,15,13,4.80
2006,12,17,15,14,3.20
2006,12,17,15,15,6.40
2006,12,17,15,16,4.80
2006,12,17,15,17,3.20
2006,12,17,15,18,3.20
2006,12,17,15,19,3.20
2006,12,17,15,20,3.20
2006,12,17,15,21,0.00
2006,12,17,15,22,0.00
2006,12,17,15,23,0.00
2006,12,17,15,24,0.00
2006,12,17,15,25,1.60
2006,12,17,15,26,3.20
2006,12,17,15,27,1.60
2006,12,17,15,28,1.60
2006,12,17,15,29,3.20
2006,12,17,15,30,3.20
2006,12,17,15,31,4.80
2006,12,17,15,32,4.80
2006,12,17,15,33,4.80
2006,12,17,15,34,3.20
2006,12,17,15,35,1.60
2006,12,17,15,36,1.60
2006,12,17,15,37,3.20
2006,12,17,15,38,3.20
2006,12,17,15,39,3.20
2006,12,17,15,40,3.20
2006,12,17,15,41,1.60
2006,12,17,15,42,0.00
2006,12,17,15,43,3.20
2006,12,17,15,44,1.60
2006,12,17,15,45,0.00
2006,12,17,15,46,1.60
2006,12,17,15,47,1.60
2006,12,17,15,48,0.00
2006,12,17,15,49,0.00
2006,12,17,15,50,0.00
2006,12,17,15,51,1.60
2006,12,17,15,52,3.20
2006,12,17,15,53,3.20
2006,12,17,15,54,1.60
2006,12,17,15,55,3.20
2006,12,17,15,56,1.60
2006,12,17,15,57,1.60
2006,12,17,15,58,1.60
2006,12,17,15,59,1.60
2006,12,17,16,00,3.20
2006,12,17,16,01,1.60
2006,12,17,16,02,0.00
2006,12,17,16,03,0.00
2006,12,17,16,04,1.60
2006,12,17,16,05,1.60
2006,12,17,16,06,1.60
2006,12,17,16,07,0.00
2006,12,17,16,08,0.00
2006,12,17,16,09,0.00
2006,12,17,16,10,0.00
2006,12,17,16,11,0.00
2006,12,17,16,12,0.00
2006,12,17,16,13,0.00
2006,12,17,16,14,0.00
2006,12,17,16,15,0.00
2006,12,17,16,16,0.00
2006,12,17,16,17,0.00
2006,12,17,16,18,0.00
2006,12,17,16,19,1.60
2006,12,17,16,20,0.00
2006,12,17,16,21,0.00
2006,12,17,16,22,0.00
2006,12,17,16,23,0.00
2006,12,17,16,24,0.00
2006,12,17,16,25,0.00
2006,12,17,16,26,0.00
2006,12,17,16,27,0.00
2006,12,17,16,28,0.00
2006,12,17,16,29,0.00
2006,12,17,16,30,0.00
2006,12,17,16,31,1.60
2006,12,17,16,32,0.00
2006,12,17,16,33,0.00
2006,12,17,16,34,0.00
2006,12,17,16,35,0.00
2006,12,17,16,36,0.00
2006,12,17,16,37,0.00
2006,12,17,16,38,0.00
2006,12,17,16,39,0.00
2006,12,17,16,40,0.00
2006,12,17,16,41,0.00
2006,12,17,16,42,0.00
2006,12,17,16,43,0.00
2006,12,17,16,44,0.00
2006,12,17,16,45,0.00
2006,12,17,16,46,1.60
2006,12,17,16,47,0.00
2006,12,17,16,48,0.00
2006,12,17,16,49,0.00
2006,12,17,16,50,0.00
2006,12,17,16,51,0.00
2006,12,17,16,52,0.00
2006,12,17,16,53,0.00
2006,12,17,16,54,0.00
2006,12,17,16,55,0.00
2006,12,17,16,56,0.00
2006,12,17,16,57,0.00
2006,12,17,16,58,0.00
2006,12,17,16,59,1.60
2006,12,17,17,00,1.60
2006,12,17,17,01,1.60
2006,12,17,17,02,0.00
2006,12,17,17,03,0.00
2006,12,17,17,04,0.00
2006,12,17,17,05,0.00
2006,12,17,17,06,1.60
2006,12,17,17,07,3.20
2006,12,17,17,08,1.60
2006,12,17,17,09,1.60
2006,12,17,17,10,1.60
2006,12,17,17,11,1.60
2006,12,17,17,12,1.60
2006,12,17,17,13,1.60
2006,12,17,17,14,1.60
2006,12,17,17,15,0.00
2006,12,17,17,16,1.60
2006,12,17,17,17,1.60
2006,12,17,17,18,1.60
2006,12,17,17,19,1.60
2006,12,17,17,20,0.00
2006,12,17,17,21,1.60
2006,12,17,17,22,1.60
2006,12,17,17,23,1.60
2006,12,17,17,24,1.60
2006,12,17,17,25,0.00
2006,12,17,17,26,0.00
2006,12,17,17,27,0.00
2006,12,17,17,28,0.00
2006,12,17,17,29,0.00
2006,12,17,17,30,1.60
2006,12,17,17,31,1.60
2006,12,17,17,32,0.00
2006,12,17,17,33,0.00
2006,12,17,17,34,1.60
2006,12,17,17,35,1.60
2006,12,17,17,36,1.60
2006,12,17,17,37,1.60
2006,12,17,17,38,1.60
2006,12,17,17,39,1.60
2006,12,17,17,40,1.60
2006,12,17,17,41,0.00
2006,12,17,17,42,0.00
2006,12,17,17,43,0.00
2006,12,17,17,44,0.00
2006,12,17,17,45,0.00
2006,12,17,17,46,0.00
2006,12,17,17,47,1.60
2006,12,17,17,48,1.60
2006,12,17,17,49,1.60
2006,12,17,17,50,1.60
2006,12,17,17,51,0.00
2006,12,17,17,52,1.60
2006,12,17,17,53,1.60
2006,12,17,17,54,1.60
2006,12,17,17,55,1.60
2006,12,17,17,56,1.60
2006,12,17,17,57,1.60
2006,12,17,17,58,1.60
2006,12,17,17,59,1.60
2006,12,17,18,00,1.60
2006,12,17,18,01,0.00
2006,12,17,18,02,1.60
2006,12,17,18,03,1.60
2006,12,17,18,04,3.20
2006,12,17,18,05,1.60